Peachtree City, GA

12:56 AM EDT on June 24, 2017 (GMT -0400)
Peachtree City-Falcon

Weather History for KFFC - November, 2012

Change the Weather History Date:

Monday, November 26, 2012

  Actual Average Record
Temperature  
Mean Temperature 47 °F 50 °F  
Max Temperature 68 °F 62 °F 73 °F (2001)
Min Temperature 26 °F 37 °F 24 °F (2008)
Degree Days  
Heating Degree Days 18 15  
Month to date heating degree days 310  
Since 1 July heating degree days 476  
Cooling Degree Days 0 0  
Month to date cooling degree days 2  
Year to date cooling degree days 1650  
Moisture  
Dew Point 26 °F    
Average Humidity 55    
Maximum Humidity 89    
Minimum Humidity 18    
Precipitation  
Precipitation 0.00 in 0.15 in 0.87 in (2013)
Month to date precipitation 3.31  
Year to date precipitation 45.29  
Snow  
Snow 0.00 in - - ()
Month to date snowfall  
Since 1 July snowfall  
Since 1 September snowfall  
Snow Depth -    
Sea Level Pressure  
Sea Level Pressure 30.19 in    
Wind  
Wind Speed 1 mph (SSE)    
Max Wind Speed 7 mph    
Max Gust Speed -    
Visibility 10 miles    
Events      
T = Trace of Precipitation, MM = Missing Value Source: NWS Daily Summary

Daily Weather History Graph

Daily Weather History Graph

Search for Another Location

Airport or City:

Trip Planner

Search our weather history database for the weather conditions in past years. The results will help you decide how hot, cold, wet, or windy it might be!

Date:

Astronomy

Nov. 26, 2012 Rise Set
Actual Time 7:20 AM EST 5:31 PM EST
Civil Twilight 6:53 AM EST 5:58 PM EST
Nautical Twilight 6:22 AM EST 6:28 PM EST
Astronomical Twilight 5:52 AM EST 6:58 PM EST
Moon 4:20 PM EST (11/26) 5:32 AM EST (11/26)
Length of Visible Light 11h 05m
Length of Day
10h 11m
Waxing Gibbous, 97% of the Moon is Illuminated
Nov 26
Waxing Gibbous
Nov 28
Full
Dec 6
Last Quarter
Dec 13
New
Dec 20
First Quarter

Hourly Weather History & Observations

Time (EST) Temp. Dew Point Humidity Pressure Visibility Wind Dir Wind Speed Gust Speed Precip Events Conditions
12:53 AM 28.9 °F 23.0 °F 78% 30.17 in 10.0 mi Calm Calm - N/A   Clear
1:53 AM 28.9 °F 23.0 °F 78% 30.16 in 10.0 mi Calm Calm - N/A   Clear
2:53 AM 28.0 °F 23.0 °F 81% 30.16 in 10.0 mi Calm Calm - N/A   Clear
3:53 AM 27.0 °F 23.0 °F 85% 30.17 in 10.0 mi Calm Calm - N/A   Clear
4:53 AM 27.0 °F 23.0 °F 85% 30.18 in 10.0 mi Calm Calm - N/A   Clear
5:53 AM 26.1 °F 23.0 °F 88% 30.21 in 10.0 mi Calm Calm - N/A   Clear
6:53 AM 26.1 °F 23.0 °F 88% 30.23 in 10.0 mi Calm Calm - N/A   Clear
7:53 AM 27.0 °F 24.1 °F 89% 30.25 in 10.0 mi Calm Calm - N/A   Clear
8:53 AM 35.1 °F 28.9 °F 78% 30.27 in 10.0 mi Calm Calm - N/A   Clear
9:53 AM 48.0 °F 30.0 °F 50% 30.26 in 10.0 mi Calm Calm - N/A   Clear
10:53 AM 57.0 °F 26.1 °F 30% 30.25 in 10.0 mi Calm Calm - N/A   Clear
11:53 AM 61.0 °F 27.0 °F 27% 30.22 in 10.0 mi Calm Calm - N/A   Clear
12:53 PM 64.9 °F 25.0 °F 22% 30.20 in 10.0 mi Calm Calm - N/A   Clear
1:53 PM 66.0 °F 21.9 °F 19% 30.17 in 10.0 mi Calm Calm - N/A   Clear
2:53 PM 68.0 °F 23.0 °F 18% 30.15 in 10.0 mi Variable 6.9 mph - N/A   Clear
3:53 PM 68.0 °F 23.0 °F 18% 30.15 in 10.0 mi South 5.8 mph - N/A   Clear
4:53 PM 64.9 °F 23.0 °F 20% 30.15 in 10.0 mi SSE 3.5 mph - N/A   Clear
5:53 PM 61.0 °F 26.1 °F 26% 30.17 in 10.0 mi South 3.5 mph - N/A   Scattered Clouds
6:53 PM 52.0 °F 32.0 °F 47% 30.17 in 10.0 mi Calm Calm - N/A   Clear
7:53 PM 50.0 °F 33.1 °F 52% 30.19 in 10.0 mi Calm Calm - N/A   Scattered Clouds
8:53 PM 45.0 °F 32.0 °F 60% 30.19 in 10.0 mi Calm Calm - N/A   Partly Cloudy
9:53 PM 46.9 °F 33.1 °F 59% 30.18 in 10.0 mi Calm Calm - N/A   Overcast
10:53 PM 46.0 °F 32.0 °F 58% 30.18 in 10.0 mi Calm Calm - N/A   Mostly Cloudy
11:53 PM 46.9 °F 34.0 °F 61% 30.18 in 10.0 mi Calm Calm - N/A   Overcast